Location: Newark
(50.0306°N, 2.3272°E)
Time: 05:34:39
(UTC+00:00)

Vanguard 1 - Pass Details

Date: 19 December 2019
Orbit: 651 x 3832 km, 34.2° (Epoch: 20 January)

Event Time Altitude Azimuth Distance (km) Brightness Sun altitude
Exits shadow 06:07:37 - 264° (W) 6,970 13.8 -14.6°
Reaches altitude 10° 06:08:01 10° 264° (W) 6,908 13.8 -14.6°
Maximum altitude 06:28:47 43° 203° (SSW) 4,356 13.3 -11.5°
Drops below altitude 10° 06:44:32 10° 139° (SE) 5,322 15.0 -9.2°
Sets 06:48:11 0° 133° (SE) 5,956 15.8 -8.6°
